Regional Weather Roundup
Issued by NWS

Home | Current Version | Previous Version | Graphics & Text | Print | Product List | Glossary On
Versions: 1 2 3 4 5 6 7 8 9 10 11 12 13 14 15 16 17 18 19 20 21 22 23 24 25 26 27 28 29 30 31 32 33 34 35 36 37 38 39 40 41 42 43 44 45 46 47 48 49 50
781
ASUS43 KMPX 240110
RWRMN
WEATHER ROUNDUP FOR MINNESOTA
NATIONAL WEATHER SERVICE TWIN CITIES/CHANHASSEN MN
800 PM CDT SAT SEP 23 2017


NOTE: "FAIR" INDICATES FEW OR NO CLOUDS BELOW 12,000 FEET WITH NO
SIGNIFICANT WEATHER AND/OR OBSTRUCTIONS TO VISIBILITY. N/A MEANS
CURRENT SKY AND/OR WEATHER CONDITIONS ARE NOT AVAILABLE.

MNZ060>063-068>070-240200-
   Twin Cities Metro

CITY           SKY/WX    TMP DP  RH WIND       PRES   REMARKS
TWIN CITIES    CLOUDY    83  71  67 SE7       29.91S
ST PAUL        PTCLDY    77  73  87 SE5       29.91S
CRYSTAL        MOCLDY    79  69  71 NW6       29.90S
BLAINE         CLOUDY    79  72  78 E5        29.91S
LAKEVILLE      PTCLDY    75  70  83 CALM      29.92S
EDEN PRAIRIE   CLOUDY    83  70  64 E7        29.90R
SOUTH ST PAUL  CLOUDY    79  71  76 CALM      29.91S
LAKE ELMO      FAIR      81  70  69 E6        29.93S
$$
MNZ001>005-007-008-013>017-022>024-027-028-240200-
   Northwest Minnesota

CITY           SKY/WX    TMP DP  RH WIND       PRES   REMARKS
BEMIDJI        CLOUDY    54  53  95 N7        30.03F
HALLOCK          N/A     57  48  72 N8        30.09R
ROSEAU           N/A     57  52  82 N5        30.07S
WARROAD        CLOUDY    57  54  88 CALM      30.07S
THIEF RVR FALL CLOUDY    57  51  80 N8        30.07R
CROOKSTON      CLOUDY    59  52  77 NE5       30.04F
FOSSTON        CLOUDY    54  52  94 N10       30.03F
DETROIT LAKES  CLOUDY    54  54 100 NE5       30.03R
MOORHEAD       LGT RAIN  55  52  88 NE10      30.03S
PARK RAPIDS    CLOUDY    57  54  89 NE8       30.01F
MAHNOMEN       CLOUDY    55  52  90 N7        30.02S
$$
MNZ006-009>011-018-025>026-240200-
   North Central Minnesota

CITY           SKY/WX    TMP DP  RH WIND       PRES   REMARKS
BAUDETTE       CLOUDY    56  53  90 N6        30.06F
FLAG ISLAND    CLOUDY    55  52  88 N7        30.07R
INTL FALLS     CLOUDY    56  53  90 N7        30.06R
WASKISH        CLOUDY    55  54  94 CALM      30.06R
BIG FORK       CLOUDY    57  54  88 CALM      30.05S
LONGVILLE      CLOUDY    57  55  94 N3        30.03S
GRAND RAPIDS   CLOUDY    59  57  93 N9        30.05R
CRANE LAKE     CLOUDY    57  55  94 N3        30.06R
ORR            CLOUDY    57  54  88 NW3       30.02S
COOK           CLOUDY    61  57  88 CALM      30.03S
WALKER         LGT RAIN  55  53  94 N6        30.03S
$$
MNZ012-019>021-037-240200-
   Northeast Minnesota

CITY           SKY/WX    TMP DP  RH WIND       PRES   REMARKS
DULUTH         CLOUDY    69  69 100 N7        29.99R
ELY            CLOUDY    64  61  88 N3        30.02R
HIBBING        CLOUDY    61  57  87 N9        30.01S
EVELETH        CLOUDY    64  57  80 N5        30.02F
DULUTH HARBOR  CLOUDY    70  66  88 CALM      29.96R
GRAND MARAIS     N/A     73  65  75 N12G23    29.94S
$$
MNZ029>031-032-039>041-046>048-054>057-064-240200-
   West Central Minnesota

CITY           SKY/WX    TMP DP  RH WIND       PRES   REMARKS
FERGUS FALLS   CLOUDY    55  55 100 N5        30.00F
WHEATON        CLOUDY    55  54  94 N6        30.01R
ALEXANDRIA     LGT RAIN  58  57  97 N6        29.99R
ELBOW LAKE     LGT RAIN  57  57  98 E6        29.99F
WADENA         LGT RAIN  55  55 100 NE8       29.97F
GLENWOOD       LGT RAIN  57  57 100 NE7       29.97S
APPLETON       LGT RAIN  59  55  88 N8        29.94F
BENSON         LGT RAIN  61  57  88 N5        29.95S
ORTONVILLE     LGT RAIN  55  54  94 N7        29.97R
MADISON        LGT RAIN  57  57 100 N3        29.96F
WILLMAR        RAIN      64  64 100 N6        29.95R
$$
MNZ033>034-036-042>043-049>051-058-059-240200-
   Central Minnesota

CITY           SKY/WX    TMP DP  RH WIND       PRES   REMARKS
ST CLOUD       CLOUDY    67  66  97 NW8       29.96R THUNDER
SAUK CENTRE    LGT RAIN  60  59  97 NE7       29.97S
PAYNESVILLE    TSTM      65  65  99 NE10      29.94F
AITKIN         LGT RAIN  61  57  88 NW5       30.01R
PINE RIVER     RAIN      55  54  94 N6        30.04S
BRAINERD       LGT RAIN  60  58  92 N8        30.02R
STAPLES        RAIN      55  55 100 NE5       30.00F
LITTLE FALLS   LGT RAIN  61  59  94 N5        29.99F
LITCHFIELD     CLOUDY    68  68 100 N6        29.95F
BUFFALO        CLOUDY    72  67  86 NW3       29.94R
MAPLE LAKE     CLOUDY    70  68  93 N6        29.94S
HUTCHINSON     PTCLDY    69  67  93 NW7       29.95R
$$
MNZ037-044-045-052-053-240200-
   East Central Minnesota

CITY           SKY/WX    TMP DP  RH WIND       PRES   REMARKS
PRINCETON      CLOUDY    72  68  88 W7G20     29.96R
MORA           CLOUDY    66  64  94 NW3       29.96S
RUSH CITY      CLOUDY    71  69  92 CALM      29.94S
MOOSE LAKE     CLOUDY    68  66  94 N6        29.96R
HINCKLEY       FAIR      72  70  94 CALM      29.95R
CLOQUET        CLOUDY    70  64  83 N9        29.98R
MCGREGOR       CLOUDY    63  61  94 NW8       30.00R
$$
MNZ071>073-080-081-089-090-097-098-240200-
   Southwest Minnesota

CITY           SKY/WX    TMP DP  RH WIND       PRES   REMARKS
MONTEVIDEO     TSTM      57  57 100 N6        29.96R
GRANITE FALLS  RAIN      63  62  96 NW7       29.96R
CANBY          CLOUDY    55  54  96 N5        29.96F
MARSHALL       LGT RAIN  61  59  94 S16G24    29.94F
REDWOOD FALLS  CLOUDY    64  61  90 NE6       29.92F
OLIVIA         CLOUDY    63  59  88 CALM      29.93R
PIPESTONE      CLOUDY    64  63  94 E6        29.92R
WORTHINGTON    CLOUDY    64  63  96 NE7       29.94S
JACKSON        CLOUDY    79  63  57 CALM      29.93S
TRACY          CLOUDY    62  61  97 CALM      29.95S
SLAYTON        CLOUDY    61  53  74 CALM      29.95S
$$
MNZ065>067-074>077-082>085-091>093-240200-
   South Central Minnesota

CITY           SKY/WX    TMP DP  RH WIND       PRES   REMARKS
MANKATO        MOCLDY    80  66  62 S5        29.92R
NEW ULM        CLOUDY    70  66  88 N8        29.92S
ST JAMES       PTCLDY    72  66  83 NW3       29.93S
FAIRMONT       PTCLDY    77  65  66 S9        29.92R
FARIBAULT      MOCLDY    79  66  65 SE5       29.93S
OWATONNA       PTCLDY    79  64  61 S7        29.94S
WASECA         PTCLDY    73  64  73 SE6       29.94S
ALBERT LEA     PTCLDY    82  64  54 S8        29.95S
$$
MNZ078>079-086>088-094>096-240200-
   Southeast Minnesota

CITY           SKY/WX    TMP DP  RH WIND       PRES   REMARKS
ROCHESTER      CLEAR     76  64  66 S6        29.98R
RED WING       PTCLDY    79  66  65 E3        29.92S
STANTON        MOCLDY    82  66  60 SE5       29.92R
DODGE CENTER   CLEAR     75  63  64 S8        29.97R
WINONA         CLOUDY    77  66  69 CALM      29.96R
AUSTIN         CLEAR     79  63  57 S3        29.97R
PRESTON        CLEAR     77  62  59 S3        29.99S
$$
ABBREVIATIONS USED IN REMARKS
   TC - TEMPERATURES IN CELSIUS
  WCI - WIND CHILL INDEX
   HX - HEAT INDEX
  VSB - VISIBILITY
$$




USA.gov is the U.S. government's official web portal to all federal, state and local government web resources and services.